星链-3646 (STARLINK-3646 )

导读 | 豆包AI

STARLINK-3646是美国SpaceX星链星座的互联网通信卫星,于2022年2月25日由猎鹰9号火箭发射入轨。它运行在近地轨道,单星质量约227-297千克,配备相控阵天线与氪离子推进系统,可自主规避碰撞。作为星链组网卫星,它为全球提供低时延、高覆盖的宽带互联网接入服务,是SpaceX近万颗卫星星座部署中的重要组成部分。

基本信息
目录编号:
51785
目录名称:
STARLINK-3646
国际标识:
2022-017T
轨道中心:
EARTH
卫星名称:
星链-3646
卫星全名:
星链-3646 (STARLINK-3646 )
卫星状态:
在轨 (已飞行1478 天)
发射日期:
2022-02-25 UTC
国别 :
美国 (US)
星等 :
--
轨道信息
数据来源 国际轨道数据
星历时间: 2026-03-14T17:49:39+0800
12小时前
查看轨道信息
半长轴: 6917.869km
偏心率: 0.0001284
轨道倾角: 53.218°
近地点辐角 91.507°
升交点赤经 317.906°
平近点角 268.607°
近地点: 538.843km
远地点: 540.621km
周期: 95.437分钟
每日圈数: 15.088438
详细信息
固有亮度:
5
最大亮度:
2.5
卫星平台:
Starlink v1.5
覆盖范围:
全球
运营商:
太空探索技术公司
运营商所在国:
美国
制造商(研发单位):
太空探索技术公司
制造商所在国:
美国
使用方式:
暂无
卫星简介
星链(Starlink)计划是由太空探索技术公司(SpaceX)提出的一个巨型低轨卫星互联网星座项目,计划在2019年至2024年间在太空搭建由约1.2万颗卫星组成的“星链”网络,其中1584颗将部署在地球上空550千米处的近地轨道,并从2020年开始工作。该卫星仍在工作。
2D轨道图
3D轨道图
轨道高度分析图
轨道倾角分析图
轨道综合分析图
查看轨道综合分析图